Change the Weather History Date:

Sunday, April 8, 2012

  Actual Average Record
Temperature  
Mean Temperature 88 °F -  
Max Temperature 102 °F 94 °F 109 °F (2003)
Min Temperature 73 °F 69 °F 41 °F (2001)
Cooling Degree Days 22    
Growing Degree Days 38 (Base 50)    
Moisture  
Dew Point 40 °F    
Average Humidity 17    
Maximum Humidity 25    
Minimum Humidity 7    
Precipitation  
Precipitation 0.00 in 0.00 in - ()
Sea Level Pressure  
Sea Level Pressure 29.77 in    
Wind  
Wind Speed 3 mph ()    
Max Wind Speed 14 mph    
Max Gust Speed -    
Visibility 6.0 miles    
Events      
Averages and records for this station are not official NWS values.
T = Trace of Precipitation, MM = Missing Value Source: Averaged Metar Reports

Daily Weather History Graph

Daily Weather History Graph

Search for Another Location

Airport or City:

Trip Planner

Search our weather history database for the weather conditions in past years. The results will help you decide how hot, cold, wet, or windy it might be!

Date:

Astronomy

Apr. 08, 2012 Rise Set
Actual Time 5:33 AM EET 6:07 PM EET
Civil Twilight 5:10 AM EET 6:30 PM EET
Nautical Twilight 4:43 AM EET 6:57 PM EET
Astronomical Twilight 4:16 AM EET 7:24 PM EET
Moon 8:09 PM EET (4/8) 6:30 AM EET (4/8)
Length of Visible Light 13h 19m
Length of Day
12h 33m
Waning Gibbous, 96% of the Moon is Illuminated
Apr 8
Waning Gibbous
Apr 13
Last Quarter
Apr 21
New
Apr 29
First Quarter
May 6
Full

Hourly Weather History & Observations

Time (EET) Temp. Dew Point Humidity Pressure Visibility Wind Dir Wind Speed Gust Speed Precip Events Conditions
12:00 AM 84.2 °F 35.6 °F 18% 29.83 in - NNW 4.6 mph - N/A   Clear
1:00 AM 82.4 °F 35.6 °F 19% 29.80 in - Calm Calm - N/A   Clear
2:00 AM 79 °F 34 °F 11% 29.78 in 6 mi NW 4.6 mph - -  
2:00 AM 78.8 °F 33.8 °F 20% 29.80 in - NW 4.6 mph - N/A   Clear
3:00 AM 77.0 °F 33.8 °F 21% 29.80 in - NW 4.6 mph - N/A   Clear
4:00 AM 75.2 °F 33.8 °F 22% 29.80 in - NW 4.6 mph - N/A   Clear
5:00 AM 77.0 °F 37.4 °F 24% 29.80 in - Calm Calm - N/A   Clear
6:00 AM 73.4 °F 35.6 °F 25% 29.80 in - Calm Calm - N/A   Clear
7:00 AM 78.8 °F 37.4 °F 23% 29.80 in - Calm Calm - N/A   Clear
8:00 AM 83 °F 42 °F 14% 29.79 in 6 mi East 5.8 mph - -  
8:00 AM 84.2 °F 41.0 °F 22% 29.80 in - East 5.8 mph - N/A   Clear
9:00 AM 91.4 °F 42.8 °F 18% 29.83 in - Calm Calm - N/A   Clear
10:00 AM 95.0 °F 39.2 °F 14% 29.83 in - Calm Calm - N/A   Clear
11:00 AM 95.0 °F 39.2 °F 14% 29.83 in - Calm Calm - N/A   Clear
12:00 PM 100.4 °F 41.0 °F 13% 29.77 in - North 4.6 mph - N/A   Clear
1:00 PM 100.4 °F 42.8 °F 14% 29.77 in - NNE 5.8 mph - N/A   Clear
2:00 PM 101 °F 43 °F 7% 29.70 in 6 mi North 8.1 mph - -  
2:00 PM 102.2 °F 42.8 °F 13% 29.74 in - North 8.1 mph - N/A   Clear
3:00 PM 102.2 °F 44.6 °F 14% 29.74 in - North 12.7 mph - N/A   Clear
4:00 PM 100.4 °F 44.6 °F 15% 29.71 in - NNE 13.8 mph - N/A   Clear
5:00 PM 100.4 °F 42.8 °F 14% 29.71 in - NNE 11.5 mph - N/A   Clear
6:00 PM 96.8 °F 42.8 °F 16% 29.71 in - Calm Calm - N/A   Clear
7:00 PM 93.2 °F 42.8 °F 17% 29.71 in - Calm Calm - N/A   Clear
8:00 PM 91 °F 43 °F 11% 29.70 in 6 mi Calm Calm - -   Clear
8:00 PM 91.4 °F 42.8 °F 18% 29.74 in - North - - N/A   Clear
9:00 PM 89.6 °F 42.8 °F 20% 29.74 in - North - - N/A   Clear
10:00 PM 87.8 °F 42.8 °F 21% 29.74 in - North - - N/A   Clear
11:00 PM 86.0 °F 33.8 °F 15% 29.74 in - North - - N/A   Clear